This is the latest recevied weather packets stored in our database for station/object N4WFF. If no packets are shown the sender has not sent any weather packets the latest 1 day(s).
| Time | Temp. | Humidity | Pressure | Rain* | Wind** | Luminosity | Snow |
|---|---|---|---|---|---|---|---|
| 1777985156 | 12.22° C | 96% | 1016.3 hPa | 0 mm | 0 m/s | 306 W/m² | - |
| 1777984855 | 11.67° C | 97% | 1016.2 hPa | 0 mm | 0 m/s | 237 W/m² | - |
| 1777984556 | 10.56° C | 97% | 1016.2 hPa | 0 mm | 0 m/s | 224 W/m² | - |
| 1777984256 | 10.56° C | 97% | 1016.2 hPa | 0 mm | 0 m/s | 142 W/m² | - |
| 1777983955 | 10° C | 97% | 1016.2 hPa | 0 mm | 0 m/s | 121 W/m² | - |
| 1777983655 | 9.44° C | 97% | 1016.2 hPa | 0 mm | 0 m/s | 116 W/m² | - |
| 1777983355 | 9.44° C | 97% | 1016 hPa | 0 mm | 0 m/s | 117 W/m² | - |
| 1777983055 | 8.89° C | 97% | 1015.9 hPa | 0 mm | 0 m/s | 80 W/m² | - |
| 1777982756 | 8.89° C | 97% | 1015.8 hPa | 0 mm | 0 m/s | 69 W/m² | - |
| 1777982456 | 8.33° C | 97% | 1015.7 hPa | 0 mm | 0 m/s | 74 W/m² | - |
| 1777981925 | 8.33° C | 96% | 1015.5 hPa | 0 mm | 0 m/s | 64 W/m² | - |
| 1777981556 | 8.33° C | 96% | 1015.4 hPa | 0 mm | 0 m/s | 55 W/m² | - |
| 1777981255 | 7.78° C | 96% | 1015.3 hPa | 0 mm | 0 m/s | 50 W/m² | - |
| 1777980956 | 7.78° C | 96% | 1015.3 hPa | 0 mm | 0 m/s | 45 W/m² | - |
| 1777980655 | 7.78° C | 96% | 1015.2 hPa | 0 mm | 0 m/s | 36 W/m² | - |
| 1777980356 | 7.78° C | 96% | 1015.1 hPa | 0 mm | 0 m/s | 34 W/m² | - |
| 1777980055 | 7.78° C | 96% | 1015 hPa | 0 mm | 0 m/s | 30 W/m² | - |
| 1777979756 | 7.78° C | 96% | 1015.1 hPa | 0 mm | 0 m/s | 23 W/m² | - |
| 1777979456 | 7.78° C | 96% | 1015 hPa | 0 mm | 0 m/s | 17 W/m² | - |
| 1777979156 | 7.22° C | 96% | 1014.9 hPa | 0 mm | 0 m/s | 10 W/m² | - |
| 1777978856 | 7.22° C | 96% | 1014.8 hPa | 0 mm | 0 m/s | 6 W/m² | - |
| 1777978556 | 7.78° C | 96% | 1014.8 hPa | 0 mm | 0 m/s | 4 W/m² | - |
| 1777978255 | 7.78° C | 96% | 1014.9 hPa | 0 mm | 0 m/s | 2 W/m² | - |
| 1777977955 | 7.78° C | 95% | 1014.9 hPa | 0 mm | 0 m/s | 1 W/m² | - |
| 1777977656 | 7.78° C | 96% | 1014.9 hPa | 0 mm | 0 m/s | 0 W/m² | - |
* Rain latest hour (hover to see other rain measurements)
** Current wind speed in m/s (hover to see current wind gust speed)